Saltar para o conteúdo principal

São Miguel / Sete Cidades (DROTRH)

ID 11217225 · 37.8679, -25.7720 mapa

Última leitura · 2026-05-09 18:00 (Europe/Lisbon)

Temperatura
14.0 °C
Humidade
81 %
Pressão
Precipitação
0.1 mm
Radiação
2,080 W/m²
Velocidade do vento
19.1 km/h
Direcção do vento
W · Oeste

Histórico de 24 horas

Hora (Europe/Lisbon) Temperatura Humidade Pressão Chuva Vento Direcção
2026-05-09 18:00 14.0 °C 81 % 0.1 mm 19.1 km/h W
2026-05-09 17:00 13.7 °C 82 % 0.0 mm 12.2 km/h SW
2026-05-09 16:00 12.7 °C 85 % 0.0 mm 10.8 km/h S
2026-05-09 15:00 12.1 °C 83 % 1.4 mm 13.7 km/h S
2026-05-09 14:00 11.7 °C 82 % 0.0 mm 11.5 km/h SW
2026-05-09 13:00 12.0 °C 75 % 0.1 mm 15.1 km/h W
2026-05-09 12:00 12.0 °C 66 % 0.1 mm 9.7 km/h S
2026-05-09 11:00 11.5 °C 69 % 0.0 mm 11.5 km/h S
2026-05-09 10:00 11.1 °C 72 % 0.0 mm 13.7 km/h S
2026-05-09 09:00 10.6 °C 74 % 0.0 mm 9.0 km/h SW
2026-05-09 08:00 10.5 °C 78 % 0.0 mm 10.1 km/h S
2026-05-09 07:00 9.9 °C 86 % 0.1 mm 6.1 km/h S
2026-05-09 06:00 10.8 °C 81 % 0.7 mm 15.5 km/h SW
2026-05-09 05:00 11.3 °C 76 % 0.0 mm 13.3 km/h S
2026-05-09 04:00 11.4 °C 72 % 0.0 mm 15.8 km/h SE
2026-05-09 03:00 11.3 °C 79 % 0.0 mm 11.5 km/h SE
2026-05-09 02:00 11.4 °C 84 % 0.8 mm 12.6 km/h S
2026-05-09 01:00 12.1 °C 84 % 0.0 mm 14.4 km/h S
2026-05-09 00:00 12.2 °C 87 % 0.2 mm 14.0 km/h S
2026-05-08 23:00 12.5 °C 85 % 0.0 mm 11.5 km/h SE
2026-05-08 22:00 13.0 °C 87 % 0.0 mm 12.6 km/h SE
2026-05-08 21:00 13.3 °C 86 % 0.0 mm 11.2 km/h S
2026-05-08 20:00 13.6 °C 84 % 0.0 mm 12.6 km/h SE
2026-05-08 19:00 14.0 °C 82 % 0.0 mm 10.4 km/h S